Weather History for KGCC - April, 2013

Change the Weather History Date:

Wednesday, April 3, 2013

  Actual Average Record
Temperature  
Mean Temperature 47 °F 39 °F  
Max Temperature 66 °F 52 °F 75 °F (1943)
Min Temperature 27 °F 26 °F -3 °F (1936)
Degree Days  
Heating Degree Days 18 26  
Month to date heating degree days 70 78  
Since 1 July heating degree days 6157 6425  
Cooling Degree Days 0 0  
Month to date cooling degree days 0 0  
Year to date cooling degree days 0 0  
Growing Degree Days 2 (Base 50)    
Moisture  
Dew Point 25 °F    
Average Humidity 54    
Maximum Humidity 85    
Minimum Humidity 22    
Precipitation  
Precipitation 0.00 in 0.02 in 0.58 in (1946)
Month to date precipitation 0.00 0.07  
Year to date precipitation 1.41 1.81  
Sea Level Pressure  
Sea Level Pressure 29.98 in    
Wind  
Wind Speed 13 mph (North)    
Max Wind Speed 24 mph    
Max Gust Speed 32 mph    
Visibility 10 miles    
Events      
T = Trace of Precipitation, MM = Missing Value Source: NWS Daily Summary

Daily Weather History Graph

Daily Weather History Graph

Search for Another Location

Airport or City:

Trip Planner

Search our weather history database for the weather conditions in past years. The results will help you decide how hot, cold, wet, or windy it might be!

Date:

Astronomy

Apr. 03, 2013 Rise Set
Actual Time 6:39 AM MDT 7:32 PM MDT
Civil Twilight 6:09 AM MDT 8:01 PM MDT
Nautical Twilight 5:34 AM MDT 8:36 PM MDT
Astronomical Twilight 4:58 AM MDT 9:13 PM MDT
Moon 2:36 AM MDT (4/3) 12:33 PM MDT (4/3)
Length of Visible Light 13h 52m
Length of Day
12h 53m
Last Quarter, 44% of the Moon is Illuminated
Apr 3
Last Quarter
Apr 10
New
Apr 18
First Quarter
Apr 25
Full
May 2
Last Quarter

Hourly Weather History & Observations

Time (MDT) Temp. Windchill Dew Point Humidity Pressure Visibility Wind Dir Wind Speed Gust Speed Precip Events Conditions
12:53 AM 41.0 °F 31.4 °F 14.0 °F 33% 29.96 in 10.0 mi South 21.9 mph 28.8 mph N/A   Clear
1:53 AM 39.9 °F 29.7 °F 15.1 °F 36% 29.95 in 10.0 mi South 23.0 mph - N/A   Clear
2:53 AM 39.0 °F 29.3 °F 16.0 °F 39% 29.92 in 10.0 mi South 19.6 mph - N/A   Clear
3:53 AM 39.9 °F 30.8 °F 21.0 °F 47% 29.91 in 10.0 mi SSW 18.4 mph - N/A   Clear
4:53 AM 44.1 °F 36.2 °F 25.0 °F 47% 29.89 in 10.0 mi SW 18.4 mph - N/A   Clear
5:53 AM 43.0 °F 36.0 °F 24.1 °F 47% 29.91 in 10.0 mi SW 13.8 mph - N/A   Clear
6:53 AM 44.1 °F 42.5 °F 23.0 °F 43% 29.93 in 10.0 mi Variable 3.5 mph - N/A   Clear
7:53 AM 45.0 °F 42.6 °F 27.0 °F 49% 29.98 in 10.0 mi East 4.6 mph - N/A   Overcast
8:53 AM 48.9 °F - 26.1 °F 41% 29.99 in 10.0 mi NE 4.6 mph - N/A   Clear
9:53 AM 57.9 °F - 25.0 °F 28% 29.97 in 10.0 mi NNW 16.1 mph - N/A   Partly Cloudy
10:53 AM 60.1 °F - 27.0 °F 28% 29.97 in 10.0 mi North 17.3 mph - N/A   Partly Cloudy
11:53 AM 62.1 °F - 28.9 °F 29% 29.97 in 10.0 mi North 13.8 mph - N/A   Clear
12:53 PM 64.0 °F - 27.0 °F 25% 29.96 in 10.0 mi NNW 17.3 mph 23.0 mph N/A   Clear
1:53 PM 64.0 °F - 28.0 °F 26% 29.96 in 10.0 mi North 16.1 mph 27.6 mph N/A   Clear
2:53 PM 64.9 °F - 26.1 °F 23% 29.95 in 10.0 mi NNW 19.6 mph 24.2 mph N/A   Clear
3:53 PM 66.0 °F - 26.1 °F 22% 29.96 in 10.0 mi NNW 19.6 mph 25.3 mph N/A   Scattered Clouds
4:53 PM 63.0 °F - 25.0 °F 24% 29.95 in 10.0 mi North 13.8 mph - N/A   Overcast
5:53 PM 62.1 °F - 24.1 °F 23% 29.97 in 10.0 mi NNW 17.3 mph 23.0 mph N/A   Mostly Cloudy
6:53 PM 59.0 °F - 27.0 °F 29% 29.99 in 10.0 mi North 15.0 mph - N/A   Overcast
7:53 PM 52.0 °F - 30.9 °F 45% 30.04 in 10.0 mi NNE 15.0 mph - N/A   Clear
8:53 PM 43.0 °F 39.5 °F 28.9 °F 58% 30.10 in 10.0 mi North 5.8 mph - N/A   Clear
9:53 PM 43.0 °F 38.2 °F 32.0 °F 65% 30.09 in 10.0 mi NE 8.1 mph - N/A   Clear
10:53 PM 37.0 °F 33.3 °F 30.0 °F 76% 30.11 in 10.0 mi North 4.6 mph - N/A   Clear
11:53 PM 28.9 °F - 25.0 °F 85% 30.11 in 10.0 mi Calm Calm - N/A   Clear